Regional Weather Roundup
Issued by NWS

Home | Current Version | Previous Version | Graphics & Text | Print | Product List | Glossary On
Versions: 1 2 3 4 5 6 7 8 9 10 11 12 13 14 15 16 17 18 19 20 21 22 23 24 25 26 27 28 29 30 31 32 33 34 35 36 37 38 39 40 41 42 43 44 45 46 47 48 49 50
879
ASUS43 KLOT 041408
RWRIL

ILLINOIS REGIONAL WEATHER ROUNDUP
NATIONAL WEATHER SERVICE CHICAGO/ROMEOVILLE IL
900 AM CDT WED MAY 04 2016

NOTE: "FAIR" INDICATES FEW OR NO CLOUDS BELOW 12,000 FEET WITH NO
SIGNIFICANT WEATHER AND/OR OBSTRUCTIONS TO VISIBILITY.

* THESE STATIONS ARE NOT UNDER NWS QUALITY CONTROL. THEY ALSO MAY NOT
  REPORT WEATHER SUCH AS PRECIPITATION OR FOG.

ILZ001-002-007-009-015-016-024-041500-
NORTHWEST ILLINOIS

CITY           SKY/WX    TMP DP  RH WIND       PRES   REMARKS
MOLINE         MOSUNNY   53  44  71 N12G17    29.83R
STERLING*      MOSUNNY   52  43  71 N18       29.81R
SAVANNA*       PTSUNNY   50  41  71 N15G24    29.83R
$$

ILZ003-004-008-010-011-017-018-041500-
NORTH CENTRAL ILLINOIS

CITY           SKY/WX    TMP DP  RH WIND       PRES   REMARKS
ROCKFORD       PTSUNNY   50  40  68 N16       29.81R
FREEPORT*      MOSUNNY   46  38  73 N13G21    29.82S
ROCHELLE*      PTSUNNY   48  42  78 N21G29    29.79R
DE KALB*       PTSUNNY   48  41  77 N24       29.78R
$$

ILZ005-006-012>014-019>023-041500-
NORTHEAST ILLINOIS

CITY           SKY/WX    TMP DP  RH WIND       PRES   REMARKS
CHICAGO-OHARE  PTSUNNY   49  39  68 N16       29.72S
CHICAGO-MIDWAY CLOUDY    48  39  71 N18       29.73R
AURORA         MOSUNNY   50  42  74 N21       29.75R
LANSING*       CLOUDY    49  40  72 N14G23    29.73R
JOLIET*        PTSUNNY   54  44  69 N10G20    29.74R
WAUKEGAN       CLOUDY    47  38  71 N10G21    29.73R
DUPAGE AIRPORT MOSUNNY   51  39  63 N15G25    29.73R
KANKAKEE*      PTSUNNY   51  42  72 N9        29.74R
WHEELING       MOSUNNY   48  39  71 N13       29.74R
MORRIS*        PTSUNNY   52  44  74 N8        29.74R
ROMEOVILLE*    CLOUDY    51  43  73 N12       29.73S
NORTHERLY ISL    N/A     46  39  76 N17         N/A
NORTHERLY ISL    N/A     46  39  76 N17         N/A
$$

LMZ740>746-041500-
SOUTHERN LAKE MICHIGAN

STATION/POSITION SKY/WX   TEMP    WIND        PRES    VSBY  WAVE
                          AIR SEA DIR/SP/G                  HT/PER
                          (F)     (DEG/KT/KT) (MB)    (MI)  (FT/S)
SOUTHERN BUOY              41 40  350/ 23/ 27 1005.3R         6/ 6
WILMETTE HARBOR            44 44   30/ 17/ 23   N/A           5/ 5
HARRISON CRIB              45     350/ 24/ 27   N/A
BURNHAM HARBOR             46     350/ 13/ 21   N/A
CALUMET HARBOR             45     340/ 19/ 25 1006.1R
BURNS HARBOR               43     350/ 28     1006.1R
MICHIGAN CITY              42     340/ 30/ 33   N/A
ST. JOSEPH                 43 47                N/A           8/ 5
$$

ILZ025>027-034>036-040-047-049-050-058-095>099-041500-
WEST-CENTRAL ILLINOIS

CITY           SKY/WX    TMP DP  RH WIND       PRES   REMARKS
QUINCY         SUNNY     57  47  69 N21       29.81R
GALESBURG*     PTSUNNY   52  47  83 N22       29.82R
MACOMB*        MOSUNNY   54  48  80 N16G22    29.83R
JACKSONVILLE*  SUNNY     57  47  70 N18       29.77R
PITTSFIELD*    SUNNY     58  47  65 N17G25    29.80R
$$

ILZ028>032-037-038-041>044-048-051>054-059>061-041500-
CENTRAL ILLINOIS

CITY           SKY/WX    TMP DP  RH WIND       PRES   REMARKS
PONTIAC        PTSUNNY   53  48  82 N17       29.76R
BLOOMINGTON    PTSUNNY   53  49  86 N20       29.76R
DECATUR        MOSUNNY   56  47  71 N16G25    29.74R
PEORIA         PTSUNNY   53  46  77 N7G21     29.78R
LACON*         PTSUNNY   50  44  80 N12G17    29.78R
LINCOLN*       PTSUNNY   55  50  81 N16       29.76R
SPRINGFIELD    MOSUNNY   57  48  72 N15       29.76R
TAYLORVILLE    MOSUNNY   55  49  79 NW22      29.75R
$$

ILZ033-039-045-046-055>057-062-063-041500-
EAST-CENTRAL ILLINOIS

CITY           SKY/WX    TMP DP  RH WIND       PRES   REMARKS
CHAMPAIGN      PTSUNNY   55  48  77 N20       29.72R
RANTOUL*       CLOUDY    53  49  83 N16G22    29.73R
MATTOON        PTSUNNY   55  48  77 N14       29.71R
PARIS*         PTSUNNY   54  49  84 NW9       29.72R
$$

ILZ079-100>102-041500-
SOUTHWEST ILLINOIS

CITY           SKY/WX    TMP DP  RH WIND       PRES   REMARKS
ALTON          SUNNY     57  46  67 N16       29.75R
BELLEVILLE     SUNNY     62  51  65 NW16G24   29.72R
CAHOKIA*       LGT RAIN  62  47  57 NW17G23   29.74R
SPARTA*        CLOUDY    58  50  75 W12       29.74S
$$

ILZ064>066-069>071-074>076-080>082-084>086-088>090-092>094-041500-
SOUTH-CENTRAL ILLINOIS

CITY           SKY/WX    TMP DP  RH WIND       PRES   REMARKS
CARBONDALE     CLOUDY    55  47  74 W6        29.74R
CAIRO*         LGT RAIN  57  47  69 SW10      29.77S
EFFINGHAM*     MOSUNNY   56  52  86 W12       29.72S
MARION         LGT RAIN  55  50  82 SW12      29.74S
MT. VERNON     MOSUNNY   57  48  72 SW7       29.72F
CENTRALIA*     MOSUNNY   59  51  75 W15       29.71S
SALEM*         SUNNY     58  51  76 W10       29.71R
METROPOLIS*    LGT RAIN  57  50  76 W6        29.77S
$$

ILZ067-068-072-073-078-083-087-091-041500-
SOUTHEAST ILLINOIS

CITY           SKY/WX    TMP DP  RH WIND       PRES   REMARKS
LAWRENCEVILLE  PTSUNNY   52  50  93 SW7       29.71F
FLORA*         PTSUNNY   58  51  78 W10       29.71R
FAIRFIELD*     CLOUDY    53  51  92 SW3       29.71R
HARRISBURG*    LGT RAIN  53  50  89 W6        29.74R
ROBINSON*      CLOUDY    51  49  93 SW7       29.72R
CARMI*         LGT RAIN  52  50  91 S5        29.71R
$$

ABBREVIATIONS USED IN REMARKS
   TC - TEMPERATURE IN CELSIUS
  WCI - WIND CHILL INDEX
   HX - HEAT INDEX
  VSB - VISIBILITY
$$





USA.gov is the U.S. government's official web portal to all federal, state and local government web resources and services.